Wind_Speed
5 4 3 4 5 7 4 3 3 2 5 1 1 3 1 3 5 5 4 4 5 6 6 15 18 19 20 19 18 19 19 18 17 16 13 11 9 8 8 7 6 4 2 2
3 2 3 2 6 6 3 2 2 5 2 3 3 5 6 4 4 5 5 5 5 5 8 14 20 20 20 18 18 19 19 18 16 14 11 9 10 10 8 6 4 4 4 4
3 3 4 3 1 5 3 1 2 3 3 3 4 4 4 4 4 2 7 7 7 7 11 18 21 22 22 20 19 19 18 16 14 12 12 11 10 9 8 7 6 5 4 4
2 2 0 3 2 3 4 2 2 2 1 1 2 2 6 6 2 5 5 5 7 10 15 20 20 21 20 19 19 18 17 16 15 14 13 12 11 10 8 7 6 7 5 5
1 1 1 1 1 2 2 2 2 3 4 4 3 2 3 6 5 4 4 5 10 18 18 20 22 22 22 20 19 19 18 17 16 15 14 13 12 10 10 9 8 6 5 6
3 1 1 2 1 1 2 1 2 4 3 4 4 2 3 5 4 6 9 10 9 15 18 21 23 24 23 22 20 20 19 17 16 15 15 14 11 11 10 8 8 7 6 7
1 1 3 0 1 2 4 3 1 3 2 2 2 3 1 3 5 6 7 10 11 10 12 18 22 23 22 20 20 17 15 15 15 15 14 13 11 12 10 10 7 7 8 8
1 2 2 1 2 2 2 2 3 3 2 4 4 4 3 4 5 6 8 10 9 12 13 10 13 18 17 18 14 13 14 15 16 15 14 13 12 12 10 10 10 10 10 11
4 3 3 3 3 3 2 1 2 3 1 4 5 3 4 3 5 6 8 9 9 9 8 7 5 7 10 10 12 15 15 15 15 14 13 13 12 11 11 12 13 13 14 13
2 6 4 6 4 6 4 2 2 2 3 5 5 4 4 4 4 5 7 8 7 7 7 6 4 2 3 8 10 12 13 14 14 14 13 12 11 11 13 14 15 16 16 17
2 4 1 6 5 5 6 2 5 6 4 4 4 4 5 4 4 6 7 8 8 8 7 5 3 2 3 4 6 10 11 12 14 14 14 12 12 13 15 16 16 18 18 18
2 1 2 5 7 7 6 3 3 4 3 6 7 5 6 5 7 8 9 10 10 10 8 7 3 2 2 3 6 8 10 12 14 14 13 13 13 14 14 15 15 16 16 16
0 2 2 6 2 6 4 4 5 6 5 3 6 10 7 3 6 7 8 8 9 8 7 7 7 5 4 4 6 9 11 12 12 14 14 14 14 15 15 13 15 16 16 17
5 5 3 2 4 7 2 2 3 6 8 7 5 7 7 4 5 7 8 8 9 8 7 8 7 9 7 7 7 8 10 11 12 14 15 15 14 15 14 14 14 16 17 17
6 5 4 8 8 5 1 1 2 3 4 5 8 7 6 5 4 5 6 8 7 6 8 8 7 9 11 10 9 10 10 11 12 14 15 14 14 14 14 14 16 17 16 14
8 7 6 5 6 7 3 3 3 2 3 4 5 5 3 3 4 6 7 9 9 8 8 8 9 12 13 11 11 10 11 11 11 13 14 14 15 15 16 16 17 17 17 18
4 6 7 6 6 6 3 3 4 3 5 6 5 3 3 4 6 7 8 8 8 5 6 9 9 13 11 11 12 11 11 11 10 11 12 14 14 16 18 18 18 18 19 18
4 5 6 5 5 5 4 8 7 7 5 5 3 3 4 5 4 4 5 4 3 2 7 10 9 10 9 11 12 11 12 11 10 11 11 12 15 16 18 18 19 19 20 19
2 4 5 4 5 3 4 6 6 6 6 4 3 3 3 4 3 4 5 3 2 3 9 10 9 8 9 10 12 13 12 13 12 11 11 12 13 15 16 17 19 20 20 20
3 1 2 2 2 2 3 4 3 3 2 2 3 4 3 3 3 4 5 2 1 3 8 9 8 8 11 10 12 12 11 12 12 13 12 11 12 14 15 17 18 19 20 20
2 2 3 4 3 2 4 4 5 3 2 3 3 4 5 5 4 5 4 3 2 6 9 10 8 8 12 12 14 11 10 10 10 11 12 13 13 12 13 14 16 17 19 20
3 3 4 5 6 7 7 7 6 5 3 2 2 3 5 7 6 6 5 5 4 9 10 11 10 8 11 12 15 11 10 11 11 11 10 10 11 13 14 15 15 16 17 19
4 5 5 6 8 9 9 9 8 7 7 8 8 8 8 8 7 6 5 2 7 11 10 11 10 9 11 13 13 10 11 11 11 11 10 11 12 12 14 16 16 16 18 18
7 7 8 9 8 9 9 11 9 10 11 11 10 9 9 10 9 7 6 6 11 10 10 11 11 11 12 13 13 12 11 12 13 11 12 12 13 13 13 15 17 17 18 18
9 9 9 10 10 10 14 14 11 11 11 12 10 8 8 8 8 6 8 9 9 10 12 12 12 12 13 15 15 14 14 15 15 14 15 16 15 17 19 20 19 19 19 19
8 9 10 11 12 12 13 12 12 11 9 11 10 8 7 8 8 8 8 9 10 11 12 12 13 13 15 14 14 14 16 16 15 15 15 16 18 20 21 18 19 20 20 22
7 8 10 12 14 15 15 14 13 15 12 12 13 9 8 8 8 9 9 10 11 11 12 13 13 14 14 14 15 16 15 16 16 17 18 20 19 19 20 20 21 22 20 21
Wind_Direction
277 189 160 180 175 176 165 171 117 241 116 328 153 130 133 208 146 142 149 142 159 154 151 158 157 160 160 162 166 170 169 169 170 169 168 155 147 161 175 186 190 204 222 245
305 313 135 182 182 188 236 82 292 275 60 335 49 25 36 125 162 164 175 171 183 172 165 165 166 163 165 165 169 174 173 172 172 175 169 161 169 176 181 180 183 198 214 239
300 334 5 15 28 176 149 128 173 183 180 329 2 13 42 61 53 191 182 183 183 178 172 171 169 171 172 173 174 178 179 177 179 178 175 175 178 181 184 188 199 210 231 265
267 27 11 258 21 39 159 78 67 53 12 128 269 344 36 349 13 46 15 204 184 177 180 179 179 180 176 177 180 181 183 184 185 184 184 186 189 192 197 206 226 252 258 265
108 252 316 182 24 65 129 68 66 84 14 5 2 82 36 4 10 17 1 355 232 188 183 184 183 185 181 182 185 187 188 190 190 193 191 192 199 203 217 233 238 245 256 261
338 81 277 273 154 47 99 110 33 80 33 353 8 46 275 343 6 6 14 7 352 193 176 180 186 185 183 185 188 194 195 198 198 200 204 204 210 219 238 237 243 238 241 245
254 266 297 216 342 319 82 220 94 82 65 53 109 195 265 27 20 29 35 24 46 135 160 181 179 182 185 188 197 204 201 202 201 205 209 213 213 222 235 229 243 239 242 242
36 103 277 344 12 58 220 10 77 81 52 108 127 122 92 73 54 43 31 39 57 80 80 103 173 182 183 196 205 200 200 199 200 205 206 210 215 234 241 232 234 238 241 239
146 219 232 52 95 31 32 32 30 107 138 125 119 109 111 89 66 58 53 43 54 75 83 86 124 173 187 198 194 190 195 200 206 206 209 215 224 235 237 234 233 239 238 240
66 355 59 49 39 29 14 91 60 62 88 114 119 113 97 76 57 51 45 45 54 68 69 66 77 114 195 191 194 200 207 208 209 211 210 220 243 238 237 237 237 242 242 243
43 9 54 51 27 4 349 50 78 47 43 108 101 104 99 79 74 78 63 54 54 58 71 74 69 94 142 194 209 210 209 212 215 217 219 226 243 244 246 254 251 252 253 253
192 145 69 313 353 355 354 34 103 131 71 56 87 98 95 77 78 76 64 54 49 41 40 28 2 335 280 251 233 229 228 226 223 222 223 236 244 250 257 262 264 260 258 259
43 321 242 266 103 6 339 6 44 87 98 96 85 102 100 106 84 81 65 48 37 25 22 22 19 13 338 314 272 251 246 243 235 227 231 241 244 247 259 269 260 260 256 250
31 349 150 58 302 307 348 11 77 92 99 97 98 76 86 73 51 40 34 22 10 13 33 23 25 35 18 345 312 286 270 261 253 243 242 247 247 251 258 265 268 269 255 250
13 347 271 283 293 282 271 188 162 136 119 92 86 78 62 54 39 37 32 18 24 34 21 17 26 9 354 344 331 318 301 285 270 260 253 253 257 256 259 267 270 272 274 265
325 319 343 359 3 354 303 296 217 169 122 105 89 63 47 61 79 61 30 18 23 16 18 13 3 350 348 350 344 325 309 298 285 275 268 261 261 260 263 271 271 270 265 268
296 306 322 326 340 353 348 63 63 84 85 69 60 46 67 78 73 47 28 26 28 49 40 15 357 351 355 343 344 341 332 316 302 286 277 273 268 266 269 270 268 268 272 275
274 293 305 313 320 320 88 69 64 69 61 36 20 56 64 63 58 26 10 21 32 54 19 2 353 359 358 1 0 351 345 340 317 303 297 285 278 279 275 272 272 272 279 280
269 306 322 341 338 333 75 88 83 85 63 27 13 47 62 60 37 12 0 22 37 21 356 0 5 1 350 348 353 346 351 348 343 334 320 307 294 285 283 282 279 280 283 282
253 223 280 284 331 76 103 94 127 126 68 52 62 70 50 22 0 355 355 350 90 13 351 354 351 353 355 359 351 351 346 342 346 346 345 335 320 304 299 295 288 286 286 283
288 271 265 263 231 186 155 142 123 116 69 70 61 34 3 345 339 337 340 330 252 345 339 348 346 341 346 353 341 345 344 345 339 335 334 337 337 334 324 317 308 300 293 290
216 225 244 245 253 241 225 221 191 183 217 280 335 331 301 296 307 314 314 264 290 330 333 340 340 340 333 332 335 337 337 337 336 332 326 322 323 321 317 318 316 311 303 301
237 237 244 241 232 240 249 245 237 243 248 263 274 280 279 290 296 295 315 266 313 331 323 332 339 334 331 321 332 334 333 331 331 325 317 314 314 312 312 313 313 310 308 308
234 228 234 240 238 247 257 267 258 267 271 271 271 280 282 288 298 288 267 282 313 323 326 330 334 333 329 322 331 333 331 329 328 317 310 308 309 308 309 310 307 305 304 305
233 236 237 235 222 240 264 274 274 273 269 269 269 272 275 273 265 283 292 302 315 320 327 332 330 328 331 330 328 330 330 328 325 320 313 310 309 303 304 305 300 301 302 301
239 240 241 245 248 259 265 270 258 270 271 271 273 277 274 271 271 279 292 302 308 315 319 328 330 329 326 329 327 323 322 322 322 320 316 311 309 308 309 306 300 299 298 299
257 257 257 260 258 257 257 254 251 263 265 262 266 274 272 271 273 277 285 294 301 309 316 323 326 328 328 326 324 324 324 323 322 319 312 309 309 308 308 307 304 303 302 299
Height
771 761 762 768 770 768 775 767 776 771 771 764 761 761 758 758 760 761 762 762 765 767 769 772 775 777 779 782 786 789 793 796 800 802 803 801 801 805 810 813 814 813 811 811
784 757 759 763 765 767 766 765 769 767 767 766 761 760 759 760 760 762 762 763 765 767 770 772 773 776 779 782 787 790 792 795 798 800 799 800 803 807 809 809 809 811 811 812
786 761 760 769 761 763 763 762 763 771 770 766 764 762 762 762 761 760 761 763 765 767 768 770 772 775 778 782 786 789 792 794 796 798 799 802 804 806 808 808 809 809 809 809
789 770 774 767 762 761 762 762 762 764 764 763 762 761 767 765 760 761 762 762 763 765 767 769 772 775 778 782 785 788 791 793 795 798 800 802 804 805 806 807 807 807 807 806
783 785 769 765 764 764 763 769 764 766 765 765 764 763 769 768 766 765 763 762 761 761 764 768 771 774 778 781 785 787 789 792 794 796 798 800 802 803 805 805 805 804 805 805
791 785 772 768 764 762 762 780 768 767 768 767 765 771 774 769 767 766 765 763 761 761 763 767 770 774 777 780 783 785 788 790 792 795 797 798 800 802 803 803 803 803 804 804
783 788 775 765 765 762 778 781 765 766 767 768 772 774 772 770 769 767 766 765 762 762 764 767 769 773 776 779 781 784 786 789 791 794 795 797 797 800 802 801 802 802 802 802
789 779 786 765 766 768 772 766 766 768 769 771 771 771 771 772 772 770 769 768 767 767 767 769 771 773 775 778 781 783 785 787 790 792 793 794 795 797 799 800 800 800 800 800
780 782 770 765 767 768 767 768 767 769 769 770 772 773 772 773 772 773 773 773 772 770 771 772 773 774 776 778 779 781 783 785 788 789 790 792 793 794 796 798 797 797 798 797
774 775 775 775 772 772 769 769 769 769 768 770 773 774 776 775 775 775 775 775 774 774 773 774 775 776 776 778 779 780 782 784 786 787 787 790 790 791 793 794 794 794 794 794
780 779 775 775 777 775 773 770 772 773 772 772 773 775 776 777 778 779 779 778 777 777 778 778 777 777 778 778 779 780 781 783 784 784 786 786 787 788 790 790 791 790 789 790
786 787 786 782 779 777 775 773 773 774 776 775 775 777 779 780 780 781 780 780 779 779 779 779 779 778 779 779 780 780 780 780 780 781 782 784 784 785 786 786 787 787 786 786
786 786 784 782 782 779 777 775 774 774 776 778 778 778 780 783 783 783 782 782 781 781 780 779 779 778 778 778 778 778 778 779 779 778 779 781 780 781 781 781 782 782 782 782
787 783 782 782 783 781 778 777 777 777 777 778 780 780 780 781 782 782 782 781 780 780 780 779 779 778 778 777 777 776 776 776 776 776 776 777 777 777 778 777 777 776 777 778
791 789 786 784 781 778 778 777 778 778 779 780 780 781 782 782 783 783 782 781 780 780 780 780 779 778 777 776 775 774 773 773 773 773 773 773 774 774 774 773 773 772 772 772
791 790 787 784 782 781 778 777 778 780 779 780 781 781 782 783 783 783 783 782 780 780 780 780 779 778 776 774 773 772 771 770 769 768 768 769 769 769 769 769 769 768 768 767
791 788 787 785 783 780 779 779 778 780 781 782 782 783 783 782 782 783 783 782 782 781 781 780 779 777 775 774 771 769 768 767 766 766 765 765 765 765 765 765 764 763 762 762
790 789 788 787 785 782 779 781 782 782 783 784 783 783 783 782 782 782 782 782 782 782 781 780 778 777 776 774 771 769 767 765 763 763 762 761 761 761 760 760 759 759 758 757
787 787 787 786 786 785 783 782 784 784 784 784 784 782 783 782 782 782 781 781 781 780 780 778 777 775 774 773 771 768 766 764 762 760 759 758 757 757 756 756 755 754 754 753
786 786 786 786 786 784 785 784 785 784 784 784 783 782 783 782 782 781 780 780 779 779 778 776 775 774 772 770 769 767 765 764 762 760 758 756 755 754 753 752 751 750 749 748
784 785 785 787 787 786 784 784 783 785 784 783 782 782 782 781 780 780 779 778 778 777 776 774 772 771 770 769 767 765 764 762 761 760 757 755 753 751 750 749 747 746 745 743
782 784 785 785 786 786 784 783 782 782 782 781 780 780 780 780 779 779 777 777 776 775 774 772 770 769 769 768 765 763 762 761 759 757 756 754 752 750 748 746 744 742 740 738
781 781 782 783 784 784 784 782 781 780 780 779 778 778 778 778 777 777 775 776 775 774 772 771 769 768 767 765 763 761 760 758 757 755 754 752 751 748 746 744 742 739 737 735
777 778 778 779 781 781 781 779 779 778 777 776 775 774 774 774 774 774 773 773 773 772 771 769 768 766 764 762 760 758 757 756 754 753 751 749 748 746 744 741 739 736 733 731
774 774 774 775 776 777 776 776 775 774 773 773 771 771 771 771 771 771 771 771 770 769 768 767 765 763 761 759 757 755 753 751 749 748 747 745 744 742 739 737 734 731 729 726
770 770 770 771 771 772 772 771 771 771 770 770 769 768 768 768 768 768 768 768 767 766 765 764 762 760 757 755 754 752 750 748 746 744 742 740 738 736 733 731 729 726 724 721
767 767 767 767 767 767 767 766 766 765 766 766 765 764 764 765 765 765 765 764 763 763 761 760 758 756 754 752 750 747 745 744 742 739 737 735 733 730 727 725 722 719 717 715